Quillayute, WA
on Friday, November 23, 2012

Friday
Previous Day Next Day
Daily Summary
 ActualAverageRecord
Temperature
Mean Temperature °F 43°F  
Max Temperature 52°F 49°F 60°F (2013)
Min Temperature 36°F 37°F 5°F (1985)
Degree Days
Heating Degree Days 21 22  
Month to date heating degree days 464  
Since 1 July heating degree days 1554  
Cooling Degree Days 0 0  
Month to date cooling degree days 0  
Year to date cooling degree days 19  
Moisture
Dew Point 46°F   
Average Humidity 96    
Maximum Humidity 100    
Minimum Humidity 88    
Precipitation
Precipitation 0.62 in 0.53 in 2.60 in (1990)
Month to date precipitation 11.85  
Year to date precipitation 82.88  
Wind
Wind Speed 5 mph   
Max Wind Speed 22 mph   
Max Gust Speed 35 mph   
Visibility 2 miles   
Events Fog , Rain   

Key: T is trace of precipitation, MM is missing value
Source: NWS Daily Summary
Time(PST)TemperatureDew PointHumidity Pressure Visibility Wind DirectionWind SpeedGust SpeedPrecipitationEvents Conditions
12:22 AM 44.6°F 42.8°F 93% 30.03 in 4.0 miles SSE 17.3 mph 33.4 mph 0.04 in Rain Light Rain
12:53 AM 46.0°F 44.1°F 93% 30.04 in 4.0 miles SSE 12.7 mph 28.8 mph 0.06 in Rain Light Rain
1:37 AM 46.4°F 44.6°F 93% 30.02 in 1.8 miles SSE 11.5 mph 25.3 mph 0.08 in Rain Rain
1:51 AM 46.4°F 44.6°F 93% 30.01 in 2.5 miles SSE 11.5 mph 24.2 mph 0.12 in Rain Rain
1:53 AM 46.9°F 45.0°F 93% 30.01 in 2.5 miles SSE 9.2 mph 23.0 mph 0.12 in Rain Rain
2:13 AM 46.4°F 44.6°F 93% 30.00 in 4.0 miles SSE 12.7 mph 25.3 mph 0.04 in Rain Light Rain
2:38 AM 48.2°F 46.4°F 93% 30.00 in 2.5 miles South 8.1 mph 19.6 mph 0.07 in Rain Rain
2:47 AM 48.2°F 46.4°F 93% 30.00 in 1.2 miles SSE 12.7 mph 25.3 mph 0.11 in Rain Rain
2:53 AM 48.0°F 46.0°F 93% 30.01 in 1.2 miles South 13.8 mph 23.0 mph 0.14 in Rain Rain
3:02 AM 48.2°F 46.4°F 93% 30.00 in 1.8 miles South 13.8 mph 23.0 mph 0.03 in Rain Rain
3:29 AM 48.2°F 46.4°F 93% 30.00 in 2.0 miles South 12.7 mph 26.5 mph 0.07 in Rain Light Rain
3:36 AM 48.2°F 46.4°F 93% 30.00 in 1.2 miles South 11.5 mph 25.3 mph 0.08 in Rain Light Rain
3:50 AM 48.2°F 46.4°F 93% 30.00 in 2.0 miles South 9.2 mph 25.3 mph 0.10 in Rain Light Rain
3:51 AM 48.0°F 46.9°F 96% 30.00 in 2.0 miles South 12.7 mph 21.9 mph 0.10 in Rain Light Rain
4:05 AM 48.2°F 46.4°F 93% 30.00 in 1.8 miles South 12.7 mph 31.1 mph 0.01 in Rain Light Rain
4:16 AM 48.2°F 46.4°F 93% 30.00 in 2.0 miles South 12.7 mph 34.5 mph 0.02 in Rain Light Rain
4:25 AM 48.2°F 46.4°F 93% 29.99 in 2.5 miles South 18.4 mph 28.8 mph 0.02 in Rain Light Rain
4:38 AM 48.2°F 46.4°F 93% 30.00 in 1.8 miles South 10.4 mph 23.0 mph 0.03 in Rain Light Rain
4:44 AM 48.2°F 46.4°F 93% 29.99 in 1.2 miles South 11.5 mph 24.2 mph 0.03 in Rain Light Rain
4:53 AM 48.0°F 46.9°F 96% 30.00 in 1.2 miles SSE 12.7 mph 26.5 mph 0.04 in Rain Light Rain
4:57 AM 48.2°F 46.4°F 93% 29.99 in 1.5 miles South 10.4 mph 29.9 mph 0.00 in Rain Light Rain
5:11 AM 48.2°F 46.4°F 93% 30.00 in 2.0 miles South 11.5 mph 27.6 mph 0.01 in Rain Light Rain
5:33 AM 48.2°F 46.4°F 93% 30.00 in 1.8 miles South 8.1 mph 26.5 mph 0.02 in Rain Light Rain
5:53 AM 48.9°F 48.0°F 97% 30.01 in 1.2 miles SSW 13.8 mph 23.0 mph 0.03 in Rain Light Rain
6:31 AM 48.2°F 48.2°F 100% 30.01 in 2.0 miles South 15.0 mph 24.2 mph 0.04 in Rain Light Rain
6:43 AM 48.2°F 48.2°F 100% 30.02 in 3.0 miles South 11.5 mph 17.3 mph 0.05 in Rain Light Rain
6:53 AM 48.9°F 48.0°F 97% 30.03 in 1.8 miles South 12.7 mph 20.7 mph 0.05 in Rain Light Rain
7:14 AM 48.2°F 48.2°F 100% 30.02 in 2.5 miles South 8.1 mph - 0.01 in Rain Light Rain
7:23 AM 48.2°F 48.2°F 100% 30.02 in 3.0 miles SSW 5.8 mph - 0.01 in Rain Light Rain
7:33 AM 48.2°F 48.2°F 100% 30.03 in 1.8 miles South 8.1 mph - 0.02 in Rain Rain
7:50 AM 48.2°F 48.2°F 100% 30.02 in 2.5 miles Variable 6.9 mph - 0.05 in Rain Light Rain
7:53 AM 48.9°F 48.0°F 97% 30.02 in 3.0 miles SSE 6.9 mph - 0.06 in Rain Light Rain
8:53 AM 48.9°F 48.9°F 100% 30.04 in 4.0 miles South 3.5 mph - 0.00 in   Overcast
9:04 AM 48.2°F 48.2°F 100% 30.04 in 2.0 miles Variable 3.5 mph - 0.00 in Rain Light Rain
9:11 AM 48.2°F 48.2°F 100% 30.04 in 1.5 miles Calm Calm - 0.01 in Rain Light Rain
9:22 AM 48.2°F 48.2°F 100% 30.04 in 1.0 miles Calm Calm - 0.01 in Rain Light Rain
9:33 AM 50.0°F 48.2°F 94% 30.05 in 2.0 miles Calm Calm - 0.01 in Rain Light Rain
9:42 AM 50.0°F 48.2°F 94% 30.05 in 4.0 miles Variable 3.5 mph - 0.02 in   Overcast
9:49 AM 50.0°F 48.2°F 94% 30.05 in 4.0 miles Variable 4.6 mph - N/A   Overcast
9:53 AM 50.0°F 48.9°F 96% 30.05 in 4.0 miles South 3.5 mph - 0.02 in   Overcast
10:07 AM 48.2°F 48.2°F 100% 30.05 in 1.8 miles SSE 5.8 mph - N/A Rain Light Rain
10:27 AM 50.0°F 48.2°F 94% 30.05 in 3.0 miles SSE 3.5 mph - 0.00 in Rain Light Rain
10:53 AM 50.0°F 48.9°F 96% 30.05 in 4.0 miles Calm Calm - 0.00 in   Overcast
11:31 AM 51.8°F 50.0°F 94% 30.04 in 5.0 miles SSW 3.5 mph - N/A   Mostly Cloudy
11:53 AM 51.1°F 48.9°F 92% 30.04 in 5.0 miles Calm Calm - N/A   Mostly Cloudy
12:20 PM 51.8°F 48.2°F 88% 30.04 in 5.0 miles Calm Calm - N/A   Overcast
12:45 PM 51.8°F 50.0°F 94% 30.04 in 4.0 miles SSW 3.5 mph - N/A   Overcast
12:53 PM 51.1°F 48.9°F 92% 30.04 in 4.0 miles SSW 3.5 mph - N/A   Overcast
1:03 PM 51.8°F 48.2°F 88% 30.03 in 3.0 miles South 4.6 mph - N/A   Overcast
1:17 PM 51.8°F 50.0°F 94% 30.03 in 3.0 miles South 8.1 mph - N/A   Overcast
1:21 PM 51.8°F 48.2°F 88% 30.03 in 2.5 miles South 5.8 mph - N/A   Overcast
1:50 PM 51.8°F 50.0°F 94% 30.02 in 2.0 miles Calm Calm - N/A   Overcast
1:53 PM 51.1°F 50.0°F 96% 30.03 in 2.5 miles South 3.5 mph - N/A   Overcast
2:05 PM 51.8°F 48.2°F 88% 30.03 in 3.0 miles SSE 4.6 mph - N/A   Overcast
2:10 PM 51.8°F 48.2°F 88% 30.03 in 3.0 miles Calm Calm - N/A   Overcast
2:17 PM 51.8°F 48.2°F 88% 30.03 in 3.0 miles South 4.6 mph - N/A   Overcast
2:28 PM 51.8°F 48.2°F 88% 30.03 in 2.5 miles South 3.5 mph - N/A   Overcast
2:48 PM 50.0°F 48.2°F 94% 30.03 in 1.2 miles South 3.5 mph - 0.00 in Rain Light Rain
2:53 PM 50.0°F 48.9°F 96% 30.03 in 1.2 miles Calm Calm - 0.01 in Rain Light Rain
3:02 PM 50.0°F 48.2°F 94% 30.03 in 1.8 miles South 3.5 mph - 0.00 in   Overcast
3:04 PM 50.0°F 48.2°F 94% 30.03 in 2.0 miles SSW 4.6 mph - 0.00 in   Overcast
3:19 PM 50.0°F 48.2°F 94% 30.04 in 2.5 miles South 3.5 mph - 0.00 in   Overcast
3:32 PM 50.0°F 48.2°F 94% 30.04 in 3.0 miles Calm Calm - 0.00 in   Overcast
3:45 PM 50.0°F 48.2°F 94% 30.04 in 3.0 miles Calm Calm - 0.00 in   Overcast
3:53 PM 50.0°F 48.0°F 93% 30.04 in 3.0 miles Calm Calm - 0.00 in   Overcast
4:19 PM 48.2°F 46.4°F 93% 30.04 in 2.0 miles WSW 5.8 mph - 0.00 in Rain Light Rain
4:38 PM 48.2°F 46.4°F 93% 30.04 in 2.5 miles Calm Calm - 0.00 in   Mostly Cloudy
4:53 PM 46.9°F 46.9°F 100% 30.04 in 2.5 miles Calm Calm - 0.00 in   Mostly Cloudy
5:23 PM 46.4°F 46.4°F 100% 30.05 in 1.8 miles Calm Calm - N/A   Mostly Cloudy
5:35 PM 46.4°F 44.6°F 93% 30.05 in 0.8 miles Calm Calm - N/A   Mostly Cloudy
5:46 PM 44.6°F 44.6°F 100% 30.05 in 0.2 miles Calm Calm - N/A Fog Fog
5:53 PM 45.0°F 45.0°F 100% 30.06 in 0.2 miles Calm Calm - N/A Fog Fog
6:07 PM 44.6°F 44.6°F 100% 30.06 in 0.5 miles Calm Calm - N/A Fog Fog
6:14 PM 44.6°F 44.6°F 100% 30.06 in 0.2 miles Calm Calm - N/A Fog Fog
6:33 PM 44.6°F 44.6°F 100% 30.06 in 0.5 miles Calm Calm - N/A Fog Fog
6:49 PM 42.8°F 42.8°F 100% 30.07 in 0.2 miles Calm Calm - N/A Fog Fog
6:53 PM 44.1°F 43.0°F 96% 30.07 in 0.2 miles Calm Calm - N/A Fog Fog
7:12 PM 44.6°F 44.6°F 100% 30.07 in 0.5 miles Calm Calm - N/A Fog Fog
7:20 PM 44.6°F 42.8°F 93% 30.07 in 0.2 miles Calm Calm - N/A Fog Fog
7:28 PM 42.8°F 42.8°F 100% 30.08 in 0.5 miles Calm Calm - N/A Fog Fog
7:41 PM 42.8°F 42.8°F 100% 30.08 in 0.2 miles Calm Calm - N/A Fog Fog
7:53 PM 43.0°F 42.1°F 97% 30.09 in 0.2 miles Calm Calm - N/A Fog Fog
8:19 PM 42.8°F 42.8°F 100% 30.08 in 0.2 miles Calm Calm - N/A Fog Fog
8:42 PM 42.8°F 42.8°F 100% 30.09 in 0.2 miles Calm Calm - N/A Fog Fog
8:53 PM 42.1°F 41.0°F 96% 30.10 in 0.2 miles Calm Calm - N/A Fog Fog
9:17 PM 41.0°F 41.0°F 100% 30.10 in 0.2 miles Calm Calm - N/A Fog Fog
9:29 PM 42.8°F 42.8°F 100% 30.10 in 0.2 miles Calm Calm - N/A Fog Fog
9:49 PM 41.0°F 41.0°F 100% 30.11 in 0.2 miles Calm Calm - N/A Fog Fog
9:53 PM 41.0°F 41.0°F 100% 30.12 in 0.2 miles Calm Calm - N/A Fog Fog
10:19 PM 39.2°F 39.2°F 100% 30.12 in 0.2 miles Calm Calm - N/A Fog Fog
10:36 PM 39.2°F 39.2°F 100% 30.12 in 0.2 miles Calm Calm - N/A Fog Fog
10:53 PM 37.9°F 37.9°F 100% 30.13 in 0.2 miles Calm Calm - N/A Fog Fog
11:15 PM 37.4°F 37.4°F 100% 30.13 in 0.8 miles Calm Calm - N/A   Mostly Cloudy
11:25 PM 39.2°F 37.4°F 93% 30.13 in 0.2 miles Calm Calm - N/A Fog Fog
11:53 PM 37.0°F 37.0°F 100% 30.15 in 0.2 miles Calm Calm - N/A Fog Fog
Moon Phase
Nov. 23 Nov. 28 Dec. 06 Dec. 13 Dec. 20
Sunrise:07:36 AM (PST) Moon Rise:02:05 PM (PST)11/23
Sunset:04:32 PM (PST) Moon Set:02:44 AM (PST)11/23

Copyright © 2014 The Weather Underground, Inc.